Flag for Ecuador Weather past 2 weeks in Guayaquil, Ecuador

Now
72 °F

Clear.


Feels Like: 71 °F
Forecast: 74 / 89 °F
Wind: 5 mph from Southwest

Location: Guayaquil / Simon Bolivar

Current Time: Jul 22, 2014 at 2:36:55 AM

Latest Report: Jul 22, 2014 at 2:00 AM


Visibility: 10 mi

Pressure: 29.80 "Hg

Humidity: 83%

Dew point: 66 °F

Location of GuayaquilLocation

Historic Weather in Guayaquil — Graph

°F

Guayaquil temperature yesterday

Maximum temperature yesterday: 88 °F (at 3:00 PM)
Minimum temperature yesterday: 72 °F (at 1:00 AM)
Average temperature yesterday: 78 °F

Past Weeks' High & Low Weather Summary

 TemperatureHumidityPressure
High91 °F (Jul 10, 3:00 PM)83% (Jul 7, 7:00 AM)29.92 "Hg (Jul 7, 7:00 AM)
Low72 °F (Jul 14, 12:00 AM)49% (Jul 10, 3:00 PM)29.65 "Hg (Jul 10, 4:00 PM)
Average78 °F71%29.84 "Hg
* Reported Jul 7 1:00 AM — Jul 22 1:00 AM, Guayaquil, Weather by CustomWeather, © 2014

Note: Actual official high and low records may vary slightly from our data, if they occured in-between our weather recording intervals... More about our weather records

Advertising

Guayaquil weather history for July 8, 2014

 ConditionsComfort  
Time TempWeatherWind HumidityBarometerVisibility
12:00 AM
Jul 8
75 °FOvercast.9 mph78%29.89 "HgN/A
1:00 AM75 °FMostly cloudy.9 mph78%29.89 "HgN/A
2:00 AM75 °FMostly cloudy.7 mph78%29.86 "HgN/A
3:00 AM75 °FMostly cloudy.7 mph78%29.83 "HgN/A
4:00 AM75 °FMostly cloudy.5 mph78%29.83 "HgN/A
5:00 AM75 °FMostly cloudy.7 mph78%29.83 "HgN/A
6:00 AM75 °FMostly cloudy.6 mph78%29.86 "HgN/A
7:00 AM77 °FPartly sunny.3 mph79%29.89 "HgN/A
8:00 AM77 °FOvercast.2 mph74%29.89 "HgN/A
9:00 AM77 °FOvercast.2 mph74%29.92 "HgN/A
10:00 AM81 °FScattered clouds.3 mph70%29.92 "HgN/A
11:00 AM82 °FBroken clouds.5 mph66%29.89 "HgN/A
12:00 PM82 °FPartly sunny.5 mph66%29.86 "HgN/A
1:00 PM84 °FPartly sunny.3 mph62%29.86 "HgN/A
2:00 PM82 °FPartly sunny.2 mph66%29.80 "HgN/A
3:00 PM84 °FPartly sunny.2 mph62%29.77 "HgN/A
4:00 PM84 °FPartly sunny.5 mph66%29.77 "HgN/A
5:00 PM82 °FPartly sunny.10 mph70%29.77 "HgN/A
6:00 PM82 °FScattered clouds.10 mph66%29.77 "HgN/A
7:00 PM81 °FPassing clouds.14 mph70%29.80 "HgN/A
8:00 PM79 °FPassing clouds.8 mph74%29.83 "HgN/A
9:00 PM79 °FPassing clouds.10 mph74%29.83 "HgN/A
10:00 PM77 °FPassing clouds.10 mph79%29.86 "HgN/A
Weather by CustomWeather, © 2014

See weather overviewHow to use our weather pages